Minot AFB, ND

1:21 PM CDT on October 19, 2019 (GMT -0500)
Minot Air Force Base

Weather History for KMIB - August, 2019

Change the Weather History Date:

Tuesday, August 6, 2019

  Actual Average Record
Temperature  
Mean Temperature 73 °F -  
Max Temperature 88 °F 79 °F 96 °F (2001)
Min Temperature 58 °F 54 °F 46 °F (2006)
Cooling Degree Days 8    
Growing Degree Days 23 (Base 50)    
Moisture  
Dew Point 57 °F    
Average Humidity 62    
Maximum Humidity 92    
Minimum Humidity 32    
Precipitation  
Precipitation 0.00 in - - ()
Sea Level Pressure  
Sea Level Pressure 29.82 in    
Wind  
Wind Speed 5 mph (WNW)    
Max Wind Speed 17 mph    
Max Gust Speed 21 mph    
Visibility 10 miles    
Events      
Averages and records for this station are not official NWS values.
T = Trace of Precipitation, MM = Missing Value Source: NWS Daily Summary

Daily Weather History Graph

Daily Weather History Graph

Search for Another Location

Airport or City:

Astronomy

Aug. 06, 2019 Rise Set
Actual Time 6:26 AM CDT 9:15 PM CDT
Civil Twilight 5:50 AM CDT 9:50 PM CDT
Nautical Twilight 5:04 AM CDT 10:36 PM CDT
Astronomical Twilight 4:09 AM CDT 11:31 PM CDT
Moon 1:24 PM CDT (8/6) 12:02 AM CDT (8/6)
Length of Visible Light 16h 00m
Length of Day
14h 48m
Waxing Crescent, 39% of the Moon is Illuminated
Aug 6
Waxing Crescent
Aug 7
First Quarter
Aug 15
Full
Aug 23
Last Quarter
Aug 30
New

Hourly Weather History & Observations

Time (CDT) Temp. Heat Index Dew Point Humidity Pressure Visibility Wind Dir Wind Speed Gust Speed Precip Events Conditions
12:56 AM 59.9 °F - 57.2 °F 91% 29.91 in 10.0 mi Calm Calm - N/A   Clear
1:56 AM 58.6 °F - 56.3 °F 92% 29.90 in 10.0 mi Calm Calm - N/A   Clear
2:56 AM 59.7 °F - 55.8 °F 87% 29.89 in 10.0 mi Calm Calm - N/A   Clear
3:56 AM 60.1 °F - 56.1 °F 87% 29.88 in 10.0 mi SW 3.5 mph - N/A   Clear
4:56 AM 59.5 °F - 55.4 °F 86% 29.87 in 10.0 mi Calm Calm - N/A   Clear
5:56 AM 59.5 °F - 55.0 °F 85% 29.86 in 10.0 mi Calm Calm - N/A   Clear
6:56 AM 59.5 °F - 55.6 °F 87% 29.85 in 10.0 mi Calm Calm - N/A   Clear
7:56 AM 64.2 °F - 58.6 °F 82% 29.84 in 10.0 mi SW 4.6 mph - N/A   Clear
8:56 AM 70.5 °F - 59.0 °F 67% 29.83 in 10.0 mi SW 9.2 mph - N/A   Clear
9:56 AM 75.6 °F - 58.6 °F 56% 29.82 in 10.0 mi WSW 9.2 mph - N/A   Clear
10:56 AM 81.5 °F 81.5 °F 57.4 °F 44% 29.81 in 10.0 mi West 11.5 mph 17.3 mph N/A   Clear
11:56 AM 84.2 °F 84.0 °F 59.2 °F 43% 29.81 in 10.0 mi West 11.5 mph - N/A   Clear
12:56 PM 85.8 °F 84.5 °F 55.8 °F 36% 29.80 in 10.0 mi West 9.2 mph - N/A   Clear
1:56 PM 87.6 °F 86.3 °F 56.5 °F 35% 29.78 in 10.0 mi WNW 10.4 mph - N/A   Clear
2:56 PM 88.2 °F 86.3 °F 54.5 °F 32% 29.75 in 10.0 mi NW 10.4 mph - N/A   Clear
3:56 PM 88.3 °F 86.7 °F 55.6 °F 33% 29.75 in 10.0 mi WNW 9.2 mph - N/A   Clear
4:56 PM 87.8 °F 86.5 °F 56.7 °F 35% 29.74 in 10.0 mi NNW 17.3 mph - N/A   Clear
5:56 PM 86.5 °F 85.3 °F 56.3 °F 36% 29.74 in 10.0 mi NW 17.3 mph - N/A   Clear
6:56 PM 84.0 °F 83.0 °F 55.6 °F 38% 29.76 in 10.0 mi NW 15.0 mph 20.7 mph N/A   Clear
7:56 PM 81.0 °F 81.2 °F 58.3 °F 46% 29.75 in 10.0 mi NNW 13.8 mph - N/A   Clear
8:56 PM 75.9 °F - 60.1 °F 58% 29.79 in 10.0 mi North 6.9 mph - N/A   Clear
9:56 PM 72.5 °F - 60.1 °F 65% 29.83 in 10.0 mi Calm Calm - N/A   Partly Cloudy
10:56 PM 64.6 °F - 59.0 °F 82% 29.85 in 10.0 mi Calm Calm - N/A   Clear
11:56 PM 61.0 °F - 57.0 °F 87% 29.85 in 10.0 mi Calm Calm - N/A   Clear